Notices

What's New in latest Release from April 7th, 2021:

- Updated Glossary, including Speed of Maximum Gust, and Total Hourly Precipitation

- Updated national and regional climate services offices contacts and prices information

- Addition of station inventory lists for 1981-2010, 1971-2000, and 1961-1990 Normals.

If you haven't already, please take our survey and provide feedback about our website: https://eccc.sondage-survey.ca/f/LanguageSelection.aspx?s=442ca660-fcf1-47c0-95a9-59707d6fd709

Hourly Data Report for November 08, 2017

CARBERRY CS
MANITOBA

49°54'20.900" N
99°21'26.800" W
383.50 m
5010547
71170
WZE

Download Data

Hourly Data (November 2017)
Hourly Data Report for November 8, 2017
TIME
LST
Temp Definition
°C
Dew Point Definition
°C
Rel Hum Definition
%
Precip. Amount Definition
mm

Wind Dir Definition
10's deg

Wind Spd Definition
km/h
Visibility Definition
km
Stn Press Definition
kPa
Hmdx Definition


Wind Chill Definition


Weather Definition


00:00 -11.4 -14.2 79 0.0 26 18   97.60   -19 LegendNANA
01:00 -12.3 -14.9 81 0.0 26 17   97.60   -20 LegendNANA
02:00 -12.7 -15.1 82 0.0 27 16   97.61   -20 LegendNANA
03:00 -13.0 -15.3 83 0.0 28 15   97.66   -20 LegendNANA
04:00 -13.0 -15.2 83 0.0 26 11   97.69   -19 LegendNANA
05:00 -12.3 -14.2 85 0.0 29 8   97.72   -17 LegendNANA
06:00 -10.0 -12.0 86 0.0 2 11   97.70   -16 LegendNANA
07:00 -10.4 -12.6 84 0.0 36 14   97.75   -17 LegendNANA
08:00 -10.6 -13.1 82 0.2 36 11   97.80   -16 LegendNANA
09:00 -10.6 -13.1 81 0.0 36 11   97.80   -16 LegendNANA
10:00 -10.5 -13.0 82 0.2 1 13   97.83   -17 LegendNANA
11:00 -10.2 -12.9 81 0.2 36 11   97.85   -16 LegendNANA
12:00 -10.4 -13.3 79 0.0 36 13   97.83   -17 LegendNANA
13:00 -10.5 -13.4 79 0.2 36 11   97.79   -16 LegendNANA
14:00 -10.4 -14.1 74 0.0 36 9   97.78   -15 LegendNANA
15:00 -10.6 -14.2 75 0.0 1 5   97.74   -14 LegendNANA
16:00 -10.9 -14.3 76 0.0 30 5   97.76   -14 LegendNANA
17:00 -13.6 -16.4 80 0.0 29 8   97.75   -19 LegendNANA
18:00 -16.0 -19.9 72 0.2 27 15   97.80   -24 LegendNANA
19:00 -15.4 -20.2 66 0.0 28 24   97.83   -26 LegendNANA
20:00 -15.3 -20.2 66 0.0 28 21   97.85   -25 LegendNANA
21:00 -17.5 -21.7 69 0.0 29 13   97.90   -25 LegendNANA
22:00 -16.3 -20.3 71 0.0 28 15   97.91   -25 LegendNANA
23:00 -16.1 -19.5 75 0.0 28 16   97.92   -25 LegendNANA

Notes on Data Quality.

Legend

  • E = Estimated
  • M = Missing
  • NA = Not Available*
  • [empty] = Indicates an unobserved value
Date modified: